GW3437 Weather Reports


Display with metric or nautical units.
time (UTC)temp
F
wind
direction
speed
MPH
gust
MPH
rain 1hr
in
rain 24hr
in
rain mn
in
humidity
%
barometer
mb
20260505052129 74 211 12.0 17.0 0.00 0.00 0.00 70 1001.7
20260505051626 74 229 7.0 10.0 0.00 0.00 0.00 70 1001.8
20260505051124 74 14 1.0 13.0 0.00 0.00 0.00 70 1001.8
20260505050621 74 152 6.0 9.0 0.00 0.00 0.00 70 1001.9
20260505050120 74 174 7.0 14.0 0.00 0.00 0.00 70 1001.9
20260505041549 75 190 7.0 13.0 0.00 0.00 0.00 69 1002.3
20260505041047 75 189 12.0 17.0 0.00 0.00 0.00 68 1002.5
20260505040544 75 204 4.0 18.0 0.00 0.00 0.00 68 1002.7
20260505040041 75 190 4.0 8.0 0.00 0.00 0.00 68 1002.7
20260505035537 75 178 11.0 17.0 0.00 0.00 0.00 68 1002.6
20260505035034 75 203 4.0 18.0 0.00 0.00 0.00 67 1002.5
20260505034530 75 187 2.0 15.0 0.00 0.00 0.00 68 1002.4
20260505034027 75 211 4.0 15.0 0.00 0.00 0.00 67 1002.4
20260505033524 75 185 5.0 17.0 0.00 0.00 0.00 67 1002.5
20260505033022 76 136 9.0 13.0 0.00 0.00 0.00 67 1002.3
20260505032520 76 175 9.0 15.0 0.00 0.00 0.00 66 1002.3
20260505032016 76 195 6.0 15.0 0.00 0.00 0.00 66 1002.3
20260505031514 76 174 2.0 15.0 0.00 0.00 0.00 66 1002.1
20260505031010 76 188 3.0 10.0 0.00 0.00 0.00 66 1002.0
20260505030507 76 208 4.0 8.0 0.00 0.00 0.00 66 1002.1
20260505030002 76 154 3.0 7.0 0.00 0.00 0.00 65 1002.3
20260505025459 77 216 9.0 15.0 0.00 0.00 0.00 65 1002.0
20260505024958 76 221 3.0 14.0 0.00 0.00 0.00 65 1001.8
20260505024454 77 187 5.0 11.0 0.00 0.00 0.00 65 1001.7
20260505023951 77 178 9.0 15.0 0.00 0.00 0.00 64 1001.9
20260505023448 77 191 11.0 15.0 0.00 0.00 0.00 64 1001.9
20260505022946 77 184 5.0 17.0 0.00 0.00 0.00 64 1001.9
20260505022443 77 201 4.0 15.0 0.00 0.00 0.00 64 1001.6
20260505021941 77 132 3.0 17.0 0.00 0.00 0.00 63 1001.7
20260505021437 77 182 7.0 9.0 0.00 0.00 0.00 63 1001.6
20260505020932 77 258 10.0 14.0 0.00 0.00 0.00 63 1001.6
20260505020428 77 185 9.0 11.0 0.00 0.00 0.00 63 1001.6
20260505015925 77 26 1.0 9.0 0.00 0.00 0.00 62 1001.6
20260505015422 78 217 3.0 14.0 0.00 0.00 0.00 62 1001.8
20260505014920 78 214 6.0 11.0 0.00 0.00 0.00 61 1001.6
20260505014416 78 157 9.0 22.0 0.00 0.00 0.00 61 1001.8
20260505013913 78 191 3.0 10.0 0.00 0.00 0.00 60 1001.6
20260505013410 78 177 9.0 11.0 0.00 0.00 0.00 60 1001.7
20260505012908 79 318 2.0 15.0 0.00 0.00 0.00 59 1001.7
20260505012406 79 163 2.0 15.0 0.00 0.00 0.00 59 1001.8
20260505011902 79 203 3.0 9.0 0.00 0.00 0.00 59 1001.9
20260505011359 79 153 6.0 13.0 0.00 0.00 0.00 59 1001.8
20260505010855 79 178 14.0 18.0 0.00 0.00 0.00 59 1001.9
20260505010351 79 278 9.0 14.0 0.00 0.00 0.00 58 1001.8
20260505005847 79 140 4.0 7.0 0.00 0.00 0.00 59 1002.1
20260505005344 79 192 8.0 11.0 0.00 0.00 0.00 58 1002.0
20260505004842 79 196 4.0 8.0 0.00 0.00 0.00 58 1002.0
20260505004338 80 161 6.0 10.0 0.00 0.00 0.00 57 1002.0
20260505003835 80 215 4.0 9.0 0.00 0.00 0.00 57 1002.3
20260505003332 80 207 3.0 7.0 0.00 0.00 0.00 57 1002.1
20260505002828 80 214 7.0 13.0 0.00 0.00 0.00 56 1002.0
20260505002325 81 155 5.0 7.0 0.00 0.00 0.00 56 1002.3
20260505001824 81 172 13.0 21.0 0.00 0.00 0.00 55 1002.4
20260505001320 81 194 8.0 16.0 0.00 0.00 0.00 55 1002.3
20260505000818 81 202 4.0 9.0 0.00 0.00 0.00 55 1002.5
20260505000315 81 203 6.0 10.0 0.00 0.00 0.00 55 1002.6
20260504235812 81 214 7.0 16.0 0.00 0.00 0.00 55 1002.6
20260504235309 81 178 5.0 11.0 0.00 0.00 0.00 54 1002.5
20260504234805 81 199 12.0 17.0 0.00 0.00 0.00 54 1002.7
20260504234303 82 221 6.0 13.0 0.00 0.00 0.00 53 1002.5
20260504233759 82 143 11.0 17.0 0.00 0.00 0.00 53 1002.8
20260504233255 82 163 3.0 8.0 0.00 0.00 0.00 53 1002.6
20260504232752 82 252 4.0 17.0 0.00 0.00 0.00 54 1002.7
20260504232249 82 206 7.0 9.0 0.00 0.00 0.00 53 1002.8
20260504231746 82 205 11.0 18.0 0.00 0.00 0.00 53 1002.8
20260504231242 82 352 5.0 13.0 0.00 0.00 0.00 54 1003.1
20260504230738 82 202 9.0 11.0 0.00 0.00 0.00 52 1003.1
20260504230237 82 197 5.0 8.0 0.00 0.00 0.00 53 1003.2
20260504225735 82 198 11.0 14.0 0.00 0.00 0.00 53 1003.2
20260504225231 82 148 7.0 14.0 0.00 0.00 0.00 53 1003.2
20260504224729 81 194 8.0 11.0 0.00 0.00 0.00 52 1003.2
20260504224226 82 205 2.0 10.0 0.00 0.00 0.00 52 1003.1
20260504223722 81 180 4.0 7.0 0.00 0.00 0.00 52 1003.3
20260504223217 81 175 4.0 10.0 0.00 0.00 0.00 53 1003.2
20260504222715 82 227 8.0 11.0 0.00 0.00 0.00 52 1003.3
20260504222212 82 188 11.0 16.0 0.00 0.00 0.00 51 1003.4
20260504221709 82 290 4.0 13.0 0.00 0.00 0.00 52 1003.5
20260504221206 81 191 2.0 14.0 0.00 0.00 0.00 52 1003.5
20260504220702 81 183 7.0 9.0 0.00 0.00 0.00 51 1003.5
20260504220200 81 252 4.0 11.0 0.00 0.00 0.00 51 1003.7
20260504215656 81 189 7.0 23.0 0.00 0.00 0.00 51 1003.8
20260504215154 81 200 6.0 10.0 0.00 0.00 0.00 51 1003.8
20260504214649 81 207 4.0 14.0 0.00 0.00 0.00 51 1003.7
20260504214146 82 182 5.0 11.0 0.00 0.00 0.00 50 1004.0
20260504213643 82 191 8.0 11.0 0.00 0.00 0.00 50 1004.0
20260504213139 81 91 5.0 11.0 0.00 0.00 0.00 50 1004.2
20260504212636 81 162 6.0 15.0 0.00 0.00 0.00 50 1004.1
20260504212132 82 147 8.0 13.0 0.00 0.00 0.00 49 1004.0
20260504211630 82 201 6.0 9.0 0.00 0.00 0.00 49 1004.3
20260504211126 82 121 1.0 6.0 0.00 0.00 0.00 48 1004.4
20260504210624 81 193 5.0 21.0 0.00 0.00 0.00 48 1004.5
20260504210120 82 189 4.0 14.0 0.00 0.00 0.00 48 1004.6
20260504205618 82 245 8.0 13.0 0.00 0.00 0.00 47 1004.6
20260504205115 83 242 7.0 14.0 0.00 0.00 0.00 46 1004.8
20260504204614 82 223 2.0 11.0 0.00 0.00 0.00 47 1004.7
20260504204112 83 259 12.0 16.0 0.00 0.00 0.00 47 1004.7
20260504203611 82 185 6.0 11.0 0.00 0.00 0.00 47 1005.0
20260504203108 83 193 5.0 15.0 0.00 0.00 0.00 46 1004.9
20260504202603 82 197 7.0 11.0 0.00 0.00 0.00 46 1005.0
20260504202100 83 120 12.0 15.0 0.00 0.00 0.00 46 1005.0
20260504201557 83 236 9.0 17.0 0.00 0.00 0.00 46 1005.1
20260504201055 83 204 6.0 9.0 0.00 0.00 0.00 46 1005.2
20260504200551 82 218 4.0 10.0 0.00 0.00 0.00 46 1005.0
20260504200048 83 183 7.0 11.0 0.00 0.00 0.00 44 1005.4
20260504195544 82 234 10.0 16.0 0.00 0.00 0.00 45 1005.6
20260504195040 83 282 6.0 10.0 0.00 0.00 0.00 45 1005.6
20260504194537 82 186 11.0 14.0 0.00 0.00 0.00 46 1005.6
20260504194033 82 217 9.0 16.0 0.00 0.00 0.00 45 1005.6
20260504193529 82 169 2.0 13.0 0.00 0.00 0.00 46 1005.8
20260504193028 81 205 10.0 24.0 0.00 0.00 0.00 46 1006.0
20260504192526 81 198 9.0 17.0 0.00 0.00 0.00 46 1006.0
20260504192024 81 179 6.0 23.0 0.00 0.00 0.00 46 1005.9
20260504191521 81 225 12.0 16.0 0.00 0.00 0.00 46 1006.1
20260504191017 81 182 4.0 15.0 0.00 0.00 0.00 45 1006.1
20260504190513 80 231 7.0 15.0 0.00 0.00 0.00 45 1006.1
20260504190009 80 240 10.0 18.0 0.00 0.00 0.00 46 1006.4
20260504185507 81 198 4.0 9.0 0.00 0.00 0.00 46 1006.3
20260504185004 80 250 5.0 10.0 0.00 0.00 0.00 46 1006.4
20260504184459 80 200 9.0 17.0 0.00 0.00 0.00 46 1006.6
20260504183954 80 203 9.0 15.0 0.00 0.00 0.00 46 1006.7
20260504183452 80 198 6.0 11.0 0.00 0.00 0.00 46 1006.6
20260504182950 79 187 6.0 18.0 0.00 0.00 0.00 47 1006.6
20260504182446 79 193 10.0 16.0 0.00 0.00 0.00 46 1006.7
20260504181944 79 166 10.0 17.0 0.00 0.00 0.00 47 1006.7
20260504181441 80 178 6.0 14.0 0.00 0.00 0.00 46 1006.7
20260504180939 79 191 11.0 15.0 0.00 0.00 0.00 46 1006.9
20260504180438 79 194 12.0 17.0 0.00 0.00 0.00 46 1006.8
20260504175936 79 241 8.0 16.0 0.00 0.00 0.00 46 1007.0
20260504175433 78 220 8.0 13.0 0.00 0.00 0.00 46 1007.1
20260504174930 78 181 9.0 21.0 0.00 0.00 0.00 46 1007.2
20260504174427 79 172 8.0 15.0 0.00 0.00 0.00 46 1007.5
20260504173925 79 218 8.0 14.0 0.00 0.00 0.00 46 1007.4
20260504173421 78 174 6.0 16.0 0.00 0.00 0.00 45 1007.5
20260504172919 78 238 12.0 15.0 0.00 0.00 0.00 45 1007.4
20260504172415 78 203 9.0 13.0 0.00 0.00 0.00 45 1007.4
20260504171911 79 131 8.0 11.0 0.00 0.00 0.00 45 1007.5
20260504171409 78 210 8.0 17.0 0.00 0.00 0.00 45 1007.6
20260504170905 78 222 5.0 14.0 0.00 0.00 0.00 45 1007.5
20260504170402 77 199 8.0 17.0 0.00 0.00 0.00 47 1007.6
20260504160321 75 227 7.0 15.0 0.00 0.00 0.00 48 1008.1
20260504150745 72 190 7.0 10.0 0.00 0.00 0.00 50 1008.5
20260504150242 71 214 10.0 18.0 0.00 0.00 0.00 50 1008.6
20260504141212 69 182 7.0 13.0 0.00 0.00 0.00 53 1008.9
20260504140708 69 171 9.0 13.0 0.00 0.00 0.00 53 1008.7
20260504140203 68 208 4.0 11.0 0.00 0.00 0.00 53 1008.8
20260504130632 65 182 11.0 18.0 0.00 0.00 0.00 57 1009.0
20260504130129 65 220 9.0 14.0 0.00 0.00 0.00 57 1009.2
20260504110520 64 199 4.0 9.0 0.00 0.00 0.00 55 1009.3
20260504100436 65 149 5.0 10.0 0.00 0.00 0.00 51 1009.5
20260504081829 68 238 4.0 9.0 0.00 0.00 0.00 45 1010.3
20260504081326 68 161 10.0 14.0 0.00 0.00 0.00 45 1010.4
20260504080822 68 196 3.0 8.0 0.00 0.00 0.00 45 1010.5
20260504080319 68 209 8.0 9.0 0.00 0.00 0.00 45 1010.3
20260504070246 69 189 6.0 13.0 0.00 0.00 0.00 42 1011.1
20260504060207 70 120 4.0 11.0 0.00 0.00 0.00 40 1012.0